Weather History for KDVP - October, 2013

Change the Weather History Date:

Wednesday, October 23, 2013

  Actual Average (KOTG) Record (KOTG)
Temperature  
Mean Temperature 32 °F -  
Max Temperature 37 °F 52 °F 79 °F (1991)
Min Temperature 28 °F 34 °F 17 °F (1981)
Degree Days  
Heating Degree Days 33    
Moisture  
Dew Point 27 °F    
Average Humidity 78    
Maximum Humidity 96    
Minimum Humidity 58    
Precipitation  
Precipitation 0.00 in - - ()
Sea Level Pressure  
Sea Level Pressure 30.08 in    
Wind  
Wind Speed 7 mph (WNW)    
Max Wind Speed 16 mph    
Max Gust Speed 23 mph    
Visibility 9 miles    
Events Snow    
Averages and records for this station are not official NWS values.
T = Trace of Precipitation, MM = Missing Value Source: NWS Daily Summary

Daily Weather History Graph

Daily Weather History Graph

Search for Another Location

Airport or City:

Trip Planner

Search our weather history database for the weather conditions in past years. The results will help you decide how hot, cold, wet, or windy it might be!

Date:

Astronomy

Oct. 23, 2013 Rise Set
Actual Time 7:48 AM CDT 6:25 PM CDT
Civil Twilight 7:18 AM CDT 6:55 PM CDT
Nautical Twilight 6:44 AM CDT 7:29 PM CDT
Astronomical Twilight 6:11 AM CDT 8:02 PM CDT
Moon 9:52 PM CDT (10/23) 12:11 PM CDT (10/23)
Length of Visible Light 11h 36m
Length of Day
10h 37m
Waning Gibbous, 79% of the Moon is Illuminated
Oct 23
Waning Gibbous
Oct 26
Last Quarter
Nov 3
New
Nov 9
First Quarter
Nov 17
Full

Hourly Weather History & Observations

Time (CDT) Temp. Windchill Dew Point Humidity Pressure Visibility Wind Dir Wind Speed Gust Speed Precip Events Conditions
12:13 AM 32.9 °F 29.8 °F 27.5 °F 81% 30.07 in 10.0 mi West 3.5 mph - N/A   Overcast
12:34 AM 32.9 °F 29.8 °F 27.5 °F 81% 30.07 in 10.0 mi West 3.5 mph - N/A   Overcast
12:53 AM 33.1 °F 30.0 °F 27.5 °F 80% 30.06 in 10.0 mi West 3.5 mph - N/A   Overcast
1:14 AM 33.1 °F 28.7 °F 27.5 °F 80% 30.07 in 10.0 mi West 4.6 mph - N/A   Overcast
1:33 AM 32.9 °F 28.5 °F 27.5 °F 81% 30.06 in 10.0 mi WSW 4.6 mph - N/A   Overcast
1:53 AM 31.6 °F 27.0 °F 27.5 °F 85% 30.06 in 10.0 mi SW 4.6 mph - N/A   Overcast
2:13 AM 30.0 °F 24.1 °F 26.6 °F 87% 30.06 in 10.0 mi WSW 5.8 mph - N/A   Mostly Cloudy
2:33 AM 29.5 °F 22.5 °F 25.7 °F 86% 30.06 in 10.0 mi WSW 6.9 mph - N/A   Scattered Clouds
2:53 AM 28.6 °F 20.7 °F 26.1 °F 90% 30.06 in 10.0 mi WSW 8.1 mph - N/A   Clear
3:13 AM 30.9 °F 25.2 °F 27.1 °F 86% 30.06 in 10.0 mi West 5.8 mph - N/A   Mostly Cloudy
3:34 AM 31.1 °F 27.7 °F 28.2 °F 89% 30.05 in 10.0 mi West 3.5 mph - N/A   Overcast
3:54 AM 31.5 °F 28.1 °F 28.9 °F 90% 30.04 in 10.0 mi WSW 3.5 mph - N/A   Overcast
4:13 AM 32.0 °F 26.4 °F 28.9 °F 88% 30.05 in 10.0 mi West 5.8 mph - N/A   Overcast
4:34 AM 32.2 °F 25.0 °F 28.8 °F 87% 30.05 in 10.0 mi West 8.1 mph - N/A   Overcast
4:53 AM 32.2 °F 25.8 °F 28.9 °F 88% 30.05 in 10.0 mi West 6.9 mph - N/A   Overcast
5:13 AM 32.0 °F 27.5 °F 29.1 °F 89% 30.04 in 10.0 mi West 4.6 mph - N/A   Mostly Cloudy
5:34 AM 32.0 °F 27.5 °F 29.3 °F 90% 30.04 in 10.0 mi WSW 4.6 mph - N/A   Overcast
5:53 AM 32.2 °F 26.7 °F 29.7 °F 90% 30.04 in 10.0 mi West 5.8 mph - N/A   Overcast
6:13 AM 32.5 °F 27.1 °F 30.0 °F 90% 30.05 in 10.0 mi West 5.8 mph - N/A   Overcast
6:33 AM 32.9 °F 26.7 °F 30.0 °F 89% 30.04 in 10.0 mi West 6.9 mph - N/A   Overcast
6:54 AM 32.9 °F 27.5 °F 30.2 °F 90% 30.03 in 10.0 mi West 5.8 mph - N/A   Overcast
7:13 AM 32.9 °F 25.9 °F 30.2 °F 90% 30.04 in 10.0 mi West 8.1 mph - N/A   Overcast
7:33 AM 32.9 °F 26.7 °F 30.6 °F 91% 30.04 in 10.0 mi West 6.9 mph - N/A   Overcast
7:53 AM 32.5 °F 26.2 °F 30.2 °F 91% 30.04 in 10.0 mi West 6.9 mph - N/A   Overcast
8:13 AM 32.5 °F 27.1 °F 30.6 °F 92% 30.05 in 10.0 mi West 5.8 mph - N/A   Overcast
8:33 AM 32.9 °F 26.7 °F 30.7 °F 92% 30.05 in 10.0 mi WNW 6.9 mph - N/A   Overcast
8:53 AM 33.1 °F 27.7 °F 31.1 °F 92% 30.05 in 10.0 mi WNW 5.8 mph - N/A   Overcast
9:12 AM 33.3 °F 27.1 °F 31.1 °F 92% 30.06 in 7.0 mi WNW 6.9 mph - N/A Snow Light Snow
9:33 AM 33.8 °F 27.7 °F 30.7 °F 89% 30.06 in 10.0 mi WNW 6.9 mph - N/A   Overcast
9:53 AM 34.0 °F 28.0 °F 30.2 °F 86% 30.06 in 7.0 mi NW 6.9 mph - N/A Snow Light Snow
10:13 AM 32.7 °F 25.0 °F 30.7 °F 92% 30.07 in 1.2 mi NW 9.2 mph - N/A Snow Light Snow
10:33 AM 32.9 °F 26.7 °F 32.0 °F 96% 30.07 in 2.5 mi NW 6.9 mph - N/A Snow Light Snow
10:53 AM 33.1 °F 26.1 °F 31.1 °F 92% 30.07 in 2.0 mi NNW 8.1 mph - N/A Snow Light Snow
11:13 AM 33.4 °F 25.9 °F 30.6 °F 89% 30.07 in 5.0 mi NNW 9.2 mph - N/A Snow Light Snow
11:32 AM 33.8 °F 26.4 °F 30.9 °F 89% 30.08 in 5.0 mi NNW 9.2 mph - N/A Snow Light Snow
11:54 AM 34.3 °F 26.5 °F 30.9 °F 87% 30.08 in 10.0 mi NNW 10.4 mph - N/A   Overcast
12:13 PM 35.1 °F 27.9 °F 30.6 °F 84% 30.08 in 10.0 mi NNW 9.2 mph - N/A   Overcast
12:34 PM 36.0 °F 29.0 °F 28.0 °F 73% 30.08 in 10.0 mi NNW 9.2 mph 16.1 mph N/A   Overcast
12:53 PM 36.0 °F 28.5 °F 26.4 °F 68% 30.08 in 10.0 mi North 10.4 mph - N/A   Overcast
1:14 PM 35.8 °F 28.3 °F 25.3 °F 66% 30.08 in 10.0 mi North 10.4 mph - N/A   Overcast
1:33 PM 36.0 °F 28.5 °F 25.3 °F 65% 30.08 in 10.0 mi NNW 10.4 mph - N/A   Overcast
1:52 PM 36.5 °F 27.8 °F 24.6 °F 62% 30.07 in 10.0 mi NNW 13.8 mph - N/A   Overcast
2:13 PM 36.7 °F 29.9 °F 23.7 °F 59% 30.07 in 10.0 mi NW 9.2 mph - N/A   Overcast
2:33 PM 36.5 °F 27.4 °F 23.9 °F 60% 30.07 in 10.0 mi NNW 15.0 mph - N/A   Overcast
2:53 PM 36.5 °F 28.2 °F 24.1 °F 61% 30.07 in 10.0 mi NNW 12.7 mph 18.4 mph N/A   Overcast
3:13 PM 36.5 °F 28.7 °F 24.3 °F 61% 30.08 in 10.0 mi NNW 11.5 mph - N/A   Overcast
3:33 PM 36.5 °F 27.4 °F 23.7 °F 60% 30.08 in 10.0 mi NW 15.0 mph 19.6 mph N/A   Overcast
3:54 PM 36.5 °F 27.8 °F 23.4 °F 59% 30.09 in 10.0 mi NW 13.8 mph 21.9 mph N/A   Overcast
4:12 PM 36.5 °F 27.4 °F 23.4 °F 59% 30.09 in 10.0 mi NW 15.0 mph 19.6 mph N/A   Overcast
4:33 PM 36.1 °F 27.3 °F 23.4 °F 60% 30.10 in 10.0 mi NNW 13.8 mph 18.4 mph N/A   Overcast
4:53 PM 35.8 °F 26.9 °F 22.6 °F 59% 30.10 in 10.0 mi NNW 13.8 mph 19.6 mph N/A   Overcast
5:13 PM 35.6 °F 26.2 °F 22.3 °F 58% 30.11 in 10.0 mi NNW 15.0 mph 23.0 mph N/A   Overcast
5:33 PM 35.4 °F 26.4 °F 21.9 °F 58% 30.11 in 10.0 mi NW 13.8 mph 20.7 mph N/A   Overcast
5:53 PM 35.1 °F 26.4 °F 22.1 °F 59% 30.11 in 10.0 mi NW 12.7 mph 18.4 mph N/A   Overcast
6:13 PM 34.7 °F 25.9 °F 21.9 °F 60% 30.11 in 10.0 mi NW 12.7 mph - N/A   Overcast
6:34 PM 34.7 °F 28.1 °F 22.5 °F 61% 30.12 in 10.0 mi NW 8.1 mph - N/A   Overcast
6:54 PM 33.8 °F 27.0 °F 22.8 °F 64% 30.12 in 10.0 mi NW 8.1 mph - N/A   Overcast
7:13 PM 34.0 °F 27.2 °F 22.8 °F 64% 30.13 in 10.0 mi NW 8.1 mph - N/A   Overcast
7:33 PM 32.0 °F 25.6 °F 23.0 °F 69% 30.13 in 10.0 mi WNW 6.9 mph - N/A   Mostly Cloudy
7:53 PM 32.0 °F 26.4 °F 23.7 °F 71% 30.14 in 10.0 mi WNW 5.8 mph - N/A   Overcast
8:13 PM 32.2 °F 25.8 °F 23.9 °F 72% 30.14 in 10.0 mi WNW 6.9 mph - N/A   Overcast
8:33 PM 32.2 °F 25.8 °F 24.4 °F 73% 30.14 in 10.0 mi West 6.9 mph - N/A   Overcast
8:54 PM 32.9 °F 26.7 °F 24.6 °F 72% 30.14 in 10.0 mi West 6.9 mph - N/A   Overcast
9:13 PM 33.1 °F 26.9 °F 24.8 °F 72% 30.14 in 10.0 mi WNW 6.9 mph - N/A   Overcast
9:33 PM 33.1 °F 26.9 °F 25.3 °F 73% 30.14 in 10.0 mi West 6.9 mph - N/A   Overcast
9:53 PM 32.9 °F 26.7 °F 25.7 °F 75% 30.14 in 10.0 mi West 6.9 mph - N/A   Overcast
10:13 PM 33.3 °F 26.4 °F 25.5 °F 73% 30.15 in 10.0 mi WNW 8.1 mph - N/A   Overcast
10:33 PM 33.8 °F 26.4 °F 25.7 °F 72% 30.15 in 10.0 mi WNW 9.2 mph - N/A   Overcast
10:53 PM 34.0 °F 25.0 °F 25.7 °F 72% 30.16 in 10.0 mi NW 12.7 mph - N/A   Overcast
11:14 PM 33.8 °F 23.5 °F 27.0 °F 76% 30.17 in 5.0 mi NNW 16.1 mph 23.0 mph N/A Snow Light Snow
11:33 PM 31.8 °F 22.3 °F 30.7 °F 96% 30.17 in 2.5 mi NW 12.7 mph - N/A Snow Light Snow
11:54 PM 31.5 °F 22.9 °F 29.7 °F 93% 30.17 in 10.0 mi NW 10.4 mph - N/A   Mostly Cloudy